www.pogodaiklimat.ru

Погода и климат >> Архив погоды >> Беларусь >> Минск


АРХИВ ПОГОДЫ в Минске

Время (UTC), дата Ветер
(напр.,м/с)
 
Видим.   Явления Облачность Т
(С)
Тd
(С)
f
(%)
Тe
(С)
Тes
(С)
Комфортность P
(гПа)
Po
(гПа)
Тmin
(С)
Tmax
(С)
R
(мм)
R24
(мм)
S
(см)
21 10.07 штиль 0 22 км 8/0
[Ac trans]
+19.0 +15.3 79 +20 +20 тепло 1016.9 990.6
00 11.07 штиль 0 20 км 9/0
[Ac trans]
+17.7 +14.5 82 +18 +18 тепло 1016.8 990.4
03 11.07 В 1 22 км 8/0
[Ac trans]
+17.8 +14.0 78 +19 +19 тепло 1016.6 990.2
06 11.07 В 1 21 км 8/6 1000 м
[Sc Ac trans]
+21.4 +15.0 67 +25 +27 комфорт 1016.7 990.6 +17.2
09 11.07 ЮВ 3 19 км в посл. час ливневой дождь 9/9 500 м
[Sc]
+20.1 +14.5 70 +23 +24 комфорт 1017.1 990.9
12 11.07 ЮВ 1 28 км {ливн. осадки, дождь} 9/9 330 м
[Sc]
+21.8 +15.6 68 +25 +27 комфорт 1016.4 990.4
15 11.07 ЮВ 1 20 км 6/0
[Ac trans]
+24.9 +15.5 56 +28 +32 жарко 1015.0 989.3
18 11.07 ЮВ 1 20 км 6/3 1000 м
[Sc Ac trans]
+22.7 +15.2 63 +27 +27 душно 1015.5 989.6 +24.9 0.0
21 11.07 штиль 0 20 км ясно +18.3 +15.2 82 +19 +19 тепло 1016.5 990.1
00 12.07 штиль 0 20 км ясно +16.7 +14.5 87 +17 +17 тепло 1016.3 989.8
03 12.07 штиль 0 21 км ясно +16.2 +14.2 88 +16 +17 по сезону 1016.5 989.9
06 12.07 ЮВ 2 18 км 4/0
[Ci fib]
+21.6 +15.5 68 +25 +31 комфорт 1015.7 989.7 +15.9
09 12.07 ЮВ 1 35 км 8/6 450 м
[Sc Ac und]
+25.3 +14.7 52 +28 +33 жарко 1014.9 989.3
12 12.07 В 2 22 км 8/5 480 м
[Sc Ac und]
+26.2 +14.7 49 +29 +33 жарко 1013.7 988.2
15 12.07 ЮВ 1 23 км {дождь} 9/9 420 м
[Sc]
+25.1 +14.1 50 +27 +28 жарко 1013.1 987.5
18 12.07 штиль 0 22 км {дождь} 10/10 480 м
[Sc]
+22.2 +16.5 70 +26 +26 душно 1013.3 987.4 +26.9 0.0
21 12.07 СВ 1 20 км {дождь} 10/10 480 м
[Sc]
+20.9 +16.2 74 +25 +25 комфорт 1012.8 986.8
00 13.07 штиль 0 10 км слабая морось {дождь} 10/10 300 м
[Sc]
+18.8 +17.2 90 +20 +20 тепло 1012.4 986.2
03 13.07 штиль 0 6000 м дождь {ливн. осадки} 10/10 330 м
[Frnb]
+17.7 +16.7 94 +18 +18 тепло 1012.2 985.9
06 13.07 С 1 18 км в посл. час дождь {ливн. осадки} 10/10 300 м
[Sc]
+17.6 +16.8 95 +19 +19 тепло 1011.6 985.3 +17.1 8
09 13.07 штиль 0 23 км в посл. час дождь 10/10 800 м
[Sc]
+18.9 +16.5 86 +20 +20 по сезону 1011.3 985.1
12 13.07 З 1 22 км гроза, ливневой дождь 9/8 600 м
[Cb calv Ac trans]
+19.6 +16.4 82 +23 +25 комфорт 1010.2 984.1
15 13.07 штиль 0 15 км в посл. час ливневой дождь {гроза} 9/8 660 м
[Cb calv Ac trans]
+18.6 +17.7 95 +20 +20 по сезону 1010.5 984.3
18 13.07 штиль 0 20 км {гроза, ливн. осадки} 8/3 600 м
[Sc Ac trans]
+18.3 +16.8 91 +19 +19 по сезону 1009.5 983.3 +21.8 9
21 13.07 З 1 13 км 8/8 540 м
[Sc]
+17.1 +16.3 95 +18 +18 по сезону 1009.7 983.4
00 14.07 штиль 0 3200 м дымка 10/10 210 м
[St]
+15.9 +15.6 98 +16 +16 по сезону 1009.2 982.8
03 14.07 штиль 0 6000 м дымка {туман} 10/10 180 м
[St]
+16.0 +15.3 96 +16 +16 по сезону 1008.9 982.5
06 14.07 ЮЗ 1 15 км {туман} 8/8 570 м
[Sc]
+17.8 +15.3 85 +19 +21 тепло 1008.2 982.0 +15.3
09 14.07 С 1 19 км слабый ливневой дождь 8/6 960 м
[Sc Ac trans]
+18.7 +15.5 82 +21 +26 комфорт 1008.7 982.6
12 14.07 З 1 30 км {ливн. осадки} 8/3 1080 м
[Cu hum Ac trans Ci fib]
+21.5 +14.2 63 +24 +32 комфорт 1007.5 981.7
15 14.07 С 1 25 км 6/3 1000 м
[Cu hum Ac trans Ci fib]
+23.9 +14.9 57 +27 +30 жарко 1006.3 980.8
18 14.07 З 1 23 км {гроза, ливн. осадки} 8/4 600 м
[Sc Ac trans Ci fib]
+18.1 +15.1 83 +19 +19 по сезону 1007.6 981.4 +24.3 3
21 14.07 штиль 0 20 км 8/0
[Ac trans]
+17.0 +15.9 93 +17 +17 по сезону 1008.1 981.8
00 15.07 штиль 0 9000 м дымка 10/10 240 м
[St]
+16.4 +15.9 97 +16 +16 по сезону 1007.6 981.3
03 15.07 С 1 10 км в посл. час туман 10/10 210 м
[St]
+16.4 +15.9 97 +17 +17 по сезону 1008.0 981.7
06 15.07 С 1 16 км 10/10 240 м
[St]
+17.4 +16.0 91 +18 +18 по сезону 1008.8 982.5 +16.1
09 15.07 СЗ 1 16 км 10/10 270 м
[St]
+19.7 +16.6 82 +23 +23 комфорт 1008.9 982.9
12 15.07 С 1 20 км гроза без осадков {дождь} 8/8 660 м
[Cb calv Ac trans]
+23.0 +15.6 63 +27 +30 душно 1007.7 982.0
15 15.07 С 1 21 км в посл. час дождь {гроза, ливн. осадки} 8/8 570 м
[Cb calv Ac trans]
+19.3 +18.7 96 +23 +24 комфорт 1007.7 981.7
18 15.07 С 1 21 км в посл. час дождь {гроза, ливн. осадки} 8/8 930 м
[Cb calv Ac trans]
+17.7 +16.3 92 +19 +19 по сезону 1008.2 982.0 +24.9 5
21 15.07 В 1 13 км гроза, ливневой дождь 9/9 570 м
[Cb calv Ac trans]
+17.0 +16.4 96 +18 +18 по сезону 1008.9 982.6
00 16.07 штиль 0 19 км {гроза, дождь} 8/8 600 м
[Sc]
+17.1 +16.4 96 +17 +17 тепло 1008.8 982.5
03 16.07 С 1 16 км 10/10 540 м
[Sc]
+17.1 +16.4 96 +18 +18 тепло 1009.1 982.8
06 16.07 С 1 7000 м слабый дождь {морось} 10/10 300 м
[Frnb]
+17.3 +16.8 97 +18 +18 по сезону 1009.2 982.9 +16.9 6
09 16.07 СВ 1 12 км слабый дождь 10/10 480 м
[Sc]
+19.6 +17.4 87 +23 +23 комфорт 1008.7 982.7
12 16.07 В 1 12 км {ливн. осадки, дождь} 10/10 360 м
[Sc]
+19.8 +19.3 97 +24 +24 комфорт 1008.3 982.3
15 16.07 СЗ 1 19 км {дождь} 10/10 420 м
[Sc]
+21.1 +18.8 87 +25 +25 комфорт 1007.4 981.5
18 16.07 СВ 1
{12}
19 км слабый дождь {гроза} 10/10 400 м
[Sc]
+18.0 +17.3 96 +19 +19 по сезону 1006.9 980.7 +22.0 15
21 16.07 СВ 1 22 км {дождь} 9/8 420 м
[Sc Ac und]
+17.8 +17.0 95 +19 +19 тепло 1006.5 980.3
00 17.07 СВ 1 15 км {дождь} 10/10 450 м
[Sc]
+18.3 +17.6 96 +20 +20 тепло 1005.8 979.7
03 17.07 С 1 15 км слабая морось 10/10 330 м
[Sc]
+18.3 +17.6 96 +20 +20 тепло 1005.3 979.2
06 17.07 С 1 11 км в посл. час дождь {морось} 10/10 210 м
[Sc]
+19.0 +18.3 96 +22 +22 комфорт 1004.8 978.8 +17.5 0.8
09 17.07 В 1 17 км {дождь} 10/10 540 м
[Sc]
+22.1 +19.0 83 +28 +28 душно 1004.6 978.9
12 17.07 СВ 2 17 км {дождь} 8/3 600 м
[Sc Ac trans]
+25.9 +19.5 68 +31 +37 очень
душно
1004.0 978.7
15 17.07 штиль 0
{15}
10 км гроза без осадков {ливн. осадки} 9/8 660 м
[Cb calv Ac trans]
+20.2 +19.5 96 +24 +25 комфорт 1003.8 977.9
18 17.07 ЮВ 1
{11}
11 км слабый ливневой дождь {гроза} 10/8 1080 м
[Cb calv Ac trans]
+19.2 +18.1 93 +22 +22 комфорт 1005.1 979.1 +27.6 15

 

Местоположение метеостанции Минск (город Минск, Беларусь): широта 53.93 долгота 27.63 высота над уровнем моря 231 м.

В архиве по умолчанию представлена погода в Минске за последнюю неделю. Архивные данные за месяц целиком и за предыдущие месяцы, начиная с января 2011 года, Вы можете получить, выбрав интересующий диапазон дат из раскрывающегося списка и нажав кнопку "Ввод!".


*Определитесь, кто Вы:
робот инопланетянин человек

Внимание! Время в таблицах - всемирное. Для получения местного времени необходимо прибавить поправку, которая в Минске равна 3 ч.

Смотрите также архив погоды в соседних городах и на ближайших метеорологических станциях:

Погода в Марьиной Горке (Минская область, Беларусь) (63 км)
Погода в Борисове (Минская область, Беларусь) (68 км)
Погода в Воложине (Минская область, Беларусь) (75 км)
Погода в Вилейке (Минская область, Беларусь) (77 км)
Погода в Столбцах (Минская область, Беларусь) (78 км)
Погода в Березино (Минская область, Беларусь) (90 км)
Погода в Слуцке (Минская область, Беларусь) (100 км)
Погода в Березинском Заповеднике (Минская область, Беларусь) (100 км)
Погода в Докшицах (Витебская область, Беларусь) (106 км)
Погода в Кличеве (Могилевская область, Беларусь) (121 км)

Пояснения к столбцам:

Ветер - указаны скорость ветра в м/с - средняя за 10 мин, порывы в срок и между сроками (в фигурных скобках) и направление, откуда дует ветер: С - северный, СВ - северо-восточный, В - восточный, ЮВ - юго-восточный, Ю - южный, ЮЗ - юго-западный, З - западный, СЗ - северо-западный.
Видимость - горизонтальная дальность видимости в метрах или километрах. При видимости от 1 до 10 км при отсутствии осадков обычно наблюдается дымка, при ухудшении видимости до 1 км и менее - туман. В сухую погоду видимость может ухудшаться дымом, пылью или мглою.
Явления - указаны атмосферные явления, наблюдавшиеся в срок или в последний час перед сроком; фигурными скобками обозначены явления, наблюдавшиеся между сроками (за 1-3 часа до срока); квадратными скобками обозначены град или гололедные отложения с указанием их диаметра в мм.
Облачность - указаны через наклонную черту общая и нижняя облачность в баллах и высота нижней границы облаков в метрах; квадратными скобками обозначены формы облаков: Ci - перистые, Cs - перисто-слоистые, Cc - перисто-кучевые, Ac - высококучевые, As - высокослоистые, Sc - слоисто-кучевые, Ns - слоисто-дождевые, Cu - кучевые, Cb - кучево-дождевые. Подробнее классификацию облаков см. в Атласе облаков (PDF).
T - Температура воздуха - температура, измеренная на высоте 2 м над землей.
Td - Температура точки росы - температура, при понижении до которой содержащийся в воздухе водяной пар достигнет насыщения.
f - Относительная влажность воздуха - влажноcть воздуха, измеренная на высоте 2 м над землей.
Te - Эффективная температура - температура, которую ощущает одетый по сезону человек в тени. Характеристика душности погоды. При расчете учитывается влияние влажности воздуха и скорости ветра на теплоощущения человека.
Tes - Эффективная температура на солнце - температура, которую ощущает человек, с поправкой на солнечный нагрев. Характеристика знойности погоды. Зависит от высоты солнца над горизонтом, облачности и скорости ветра. Ночью, в пасмурную погоду, а также при ветре 12 м/с и более поправка равна нулю.
P - Атмосферное давление - приведенное к уровню моря атмосферное давление.
Po - Атмосферное давление - измеренное на уровне метеостанции атмосферное давление.
Tmin - Минимальная температура - минимум температуры воздуха на высоте 2 м над землей.
Tmax - Максимальная температура - максимум температуры воздуха на высоте 2 м над землей.
R - Количество осадков - Количество выпавших осадков за период времени, мм. При наведении курсора мыши на число - период времени, за который выпало указанное количество осадков.
R24 - Количество осадков - Количество выпавших осадков за 24 часа, мм.
S - Снежный покров - Высота снежного покрова, см. При наведении курсора мыши на число - состояние снежного покрова и степень покрытия местности в баллах.